THOR ABLESTAR DEB, 152

Orbit data source: Space-Track

THOR ABLESTAR DEB, 152 is space debris in LEO originally from a launch on Thu, 29 Jun 1961 UTC launched from the Air Force Eastern Test Range (AFETR). Debris objects in space refer to the collection of defunct objects orbiting the Earth. Examples of debris include non-operational satellites, rocket bodies, and fragments generated from explosions, collisions, or faulty payload assembly.

Loading next visibility...
Identifier
152, 1961-015AN
Orbit
LEO
Country
Flag of USUS
Related business
Manufacturer
Unknown
Mission
Spacecraft
Bus & Motor
Unknown
Mass
Unknown
Launch date (UTC)
1961-06-29 (64 years ago)
Launch vehicle
Unknown
Launch site
Air Force Eastern Test Range (AFETR)
Object type
Payload
Rocket body
Debris
Shape & HBR
Unknown shape, 0.2 m
Radar Cross Section
Medium (>0.1 m² and <1 m²)

Expand to show TLE details & history
Last TLE update: 8 hours ago

TLE from 8 hours ago
0 THOR ABLESTAR DEB
1   152U 61015AN  25342.72874606  .00000616  00000-0  34518-3 0  9994
2   152  66.5936  84.9822 0154225 323.7734  35.2984 14.11342567299203
Epoch: 2025-12-08T17:29Z
TLE epoch observation values (Epoch: 2025-12-08T17:29:23.659Z)
Latitude
-0.00004°
Longitude
104.90999°
Altitude
766.397 km
Speed
7.518 km/s
True Right ascension
05h 39m 55s
True Declination
0° 00' 00"
Sunlit
Object was in full shadow at epoch
Visualization orbit readout
Latitude
Unknown
Longitude
Unknown
Altitude
Unknown
Speed
Unknown
Apparent Right ascension
Unknown
Apparent Declination
Unknown
Sunlit
N/A
Visualization observer readout
Local Sidereal Time
00:03:14
Azimuth
Unknown
Elevation
Unknown
Doppler factor
Unknown
Orbital elements
Apogee altitude
964.707 km
Perigee altitude
741.657 km
Semi-major axis
7,231.319 km
Eccentricity
0.01542
Inclination
66.5936°
RAAN
84.9822°
Arg. of periapsis
323.7734°
True anomaly
36.33586°
Mean anomaly
35.2984°
Eccentric anomaly
35.81549°
Mean motion
3.52953 °/min
Orbital period
102 mins
BSTAR
0.00034518
Loading maneuver chart data...
Computing Atmospheric mass density...

Documentation

Showing up to 5 results
|